Regional Weather Roundup
Issued by NWS

Home | Current Version | Previous Version | Text Only | Print | Product List | Glossary On
Versions: 1 2 3 4 5 6 7 8 9 10 11 12 13 14 15 16 17 18 19 20 21 22 23 24 25 26 27 28 29 30 31 32 33 34 35 36 37 38 39 40 41 42 43 44 45 46 47 48 49 50
000
ASUS46 KLOX 230212
RWRCA

SOUTHERN CALIFORNIA WEATHER ROUNDUP
NATIONAL WEATHER SERVICE OXNARD CALIFORNIA
700 PM PDT TUE JUL 22 2014

NOTE: "FAIR" INDICATES FEW OR NO CLOUDS BELOW 12,000 FEET WITH NO
SIGNIFICANT WEATHER AND/OR OBSTRUCTIONS TO VISIBILITY.

  -  STATIONS PRECEEDED BY AN ASTERISK (*) ARE NOT NWS OR FAA
     STATIONS AND ARE NOT SUBJECT TO NWS AND FAA QUALITY CONTROL.

CAZ041-042-087-230300-
LA AND ORANGE COUNTY COASTAL AREAS


CITY           SKY/WX    TMP DP  RH WIND       PRES   REMARKS
L.A. DOWNTOWN  FAIR      79  55  43 VRB3      29.98S
L.A. AIRPORT   FAIR      73  58  59 W13       29.99S
LONG BEACH     FAIR      77  55  46 W15       29.98S

CITY           SKY/WX    TMP DP  RH WIND       PRES   REMARKS
AVALON           N/A     73 N/A N/A N2          N/A
FULLERTON      FAIR      82  52  35 VRB5      29.97F
*GETTY CENTER    N/A     79  55  44 E2          N/A
HAWTHORNE      FAIR      75  60  59 W12       29.99S
*LEO CARRILLO    N/A     73  60  63 W14G29      N/A
*LOS ALAMITOS  SUNNY     79  56  45 W14       29.98F
*REDONDO BEACH   N/A     72  63  72 SW3       29.99S
SANTA ANA      FAIR      81  59  47 SW5       29.98S
STA MONICA APT FAIR      77  58  51 W8        29.98S
TORRANCE       SUNNY     77  61  57 VRB7      29.99S
*UCLA            N/A     79  55  44 E3        29.95F

$$

CAZ547-548-048-230300-
LA COUNTY VALLEYS AND INLAND EMPIRE


CITY           SKY/WX    TMP DP  RH WIND       PRES   REMARKS
BURBANK        FAIR      86  50  28 VRB5      29.99R
VAN NUYS       FAIR      85  46  25 NW14      29.99R

CITY           SKY/WX    TMP DP  RH WIND       PRES   REMARKS
CORONA AIRPORT FAIR      84  53  34 MISG      29.98S
CHINO          FAIR      83  52  34 W13       29.99S
*CLAREMONT       N/A     82  49  31 SW8G20      N/A
MARCH AFB      FAIR      85  55  35 NW13      30.01S
*NORTHRIDGE      N/A     84  45  24 W7G16       N/A
ONTARIO        FAIR      85  53  33 W14       29.99S
*PASADENA        N/A     86  54  32 CALM        N/A
POMONA         SUNNY     81  52  36 W12       30.03S
RIVERSIDE      FAIR      85  53  33 W14       29.98S
SAN BERNARDINO SUNNY     88  50  27 W12       29.99S
*SAN GABRIEL     N/A     81  48  30 SW6       29.95S
*SAN RAFAEL HI   N/A     85  52  31 E5          N/A
*SAUGUS          N/A     86  48  26 W9G21       N/A
*WHITEMAN AP   SUNNY     90  43  19 S6        30.03S
*WHITTIER HILL   N/A     79  53  40 W8          N/A
*WOODLAND HILL   N/A     84  48  28 NW5         N/A

$$

CAZ054-055-230300-
LA AND SAN BERNARDINO COUNTY MOUNTAINS


CITY           SKY/WX    TMP DP  RH WIND       PRES   REMARKS
*ACTON           N/A     90  44  19 SW12        N/A
*BIG BEAR AIRP FAIR      73  30  20 W8        30.36S
*BIG PINES       N/A     72  40  31 CALM        N/A
*CHILAO          N/A     78  47  33 SW6         N/A
MT WILSON NWS    N/A     79  50  36 MISG        N/A
SANDBERG       FAIR      82  38  20 VRB7      30.21S
*WARM SPRINGS    N/A     80  49  33 W5          N/A

$$

CAZ028-029-059-060-099-230300-
ANTELOPE VALLEY AND SURROUNDING AREAS


CITY           SKY/WX    TMP DP  RH WIND       PRES   REMARKS
LANCASTER      FAIR      88  39  17 SW16      30.03R
PALMDALE       FAIR      88  38  17 SW24      30.04R
*POPPY PARK      N/A     87  35  16 SW18        N/A

CITY           SKY/WX    TMP DP  RH WIND       PRES   REMARKS
29 PALMS       FAIR     102  29   7 SW15      29.99F HX  95
BARSTOW/DAGGET FAIR     102 -11   1 W21       29.93S HX  93
BISHOP         FAIR      94  36  13 S12       30.02R
CHINA LAKE     FAIR      98  40  13 S22G28    29.94S HX  93
EDWARDS AFB    SUNNY     92  39  15 SW24      29.99R
MOJAVE         FAIR      90  48  24 W18       30.04S
NEEDLES        FAIR     110  27   5 W6        29.82F HX 102
VICTORVILLE    FAIR      93  28  10 S14       30.05R

$$

CAZ039-040-230300-
VENTURA AND SANTA BARBARA COUNTY COAST


CITY           SKY/WX    TMP DP  RH WIND       PRES   REMARKS
CAMARILLO      FAIR      74  58  57 W13       30.00S
NWS OXNARD       N/A     73  60  63 W5        30.00S
OXNARD AIRPORT FAIR      71  60  68 W18       30.00S
*POINT MUGU    FAIR      71  61  70 W17G24    30.01S
SBA APT/GOLETA FAIR      78  57  48 W14       29.96F
*SANTA BARBARA   N/A     82  57  41 NE1       30.05S
*VENTURA         N/A     74  59  59 SW3       30.02S

$$

CAZ044-045-230300-
VENTURA COUNTY VALLEYS


CITY           SKY/WX    TMP DP  RH WIND       PRES   REMARKS
*SIMI VALLEY     N/A     77  59  54 W3        29.97S
*OJAI            N/A     81  58  44 CALM      29.93S
*FILLMORE        N/A     84  62  46 CALM      29.91R

$$

CAZ053-230300-
VENTURA COUNTY MOUNTAINS


CITY           SKY/WX    TMP DP  RH WIND       PRES   REMARKS
*LOCKWOOD VLY    N/A    N/A N/A N/A MISG        N/A
*ROSE VALLEY     N/A     82  54  36 MISG        N/A

$$

CAZ034-035-036-230300-
CENTRAL COAST AND SANTA YNEZ VALLEY


CITY           SKY/WX    TMP DP  RH WIND       PRES   REMARKS
SAN LUIS OBISP FAIR      70  56  61 NW16      30.07R
SANTA MARIA    FAIR      72  56  57 NW15      30.08R

CITY           SKY/WX    TMP DP  RH WIND       PRES   REMARKS
*CAL POLY SLO    N/A     72  57  60 W8          N/A
*CAMBRIA         N/A     67  60  78 E10       29.97F
*LOMPOC          N/A     72  52  49 W12       30.09R
*PISMO BEACH     N/A     69  61  77 W9        30.07R

$$

CAZ037-038-051-230300-
SAN LUIS OBISPO COUNTY INTERIOR AND CUYAMA VALLEY


CITY           SKY/WX    TMP DP  RH WIND       PRES   REMARKS
*CUYAMA          N/A     84  47  27 W6        29.93S
PASO ROBLES    FAIR      76  51  41 S17       30.03S

$$

CAZ032-033-061-230300-
SOUTHERN DESERTS


CITY           SKY/WX    TMP DP  RH WIND       PRES   REMARKS
BLYTHE         FAIR     109  41  10 SE9       29.78S HX 103
IMPERIAL       FAIR     109  34   7 CALM      29.76S HX 102
PALM SPRINGS   FAIR     105  43  12 NW18      29.83F HX 100
THERMAL        FAIR     109  40   9 NW10      29.75S HX 103

$$

ELSEWHERE ACROSS THE WESTERN UNITED STATES AND MEXICO


CITY           SKY/WX    TMP DP  RH WIND       PRES   REMARKS
DENVER, CO     FAIR      86  48  26 SE9       30.28R
GRAND CANYON,  FAIR      83  36  18 W6        30.34S
HONOLULU, HI   MOSUNNY   84  72  65 E14G25    29.99S
KAHULUI, MAUI  PTSUNNY   82  72  69 NE21G29   29.99F
LAKE TAHOE, CA FAIR      71  47  42 S15G24    30.25R
LAS VEGAS, NV  FAIR     106  16   4 SW17      29.87F HX  97
MAMMOTH LAKES, FAIR      73  39  29 W23G31    30.31S
MEXICO CITY, M CLOUDY    66  52  59 S7        30.35R THUNDER
PHOENIX, AZ    FAIR     109  46  12 SW9       29.80S HX 105
PORTLAND, OR   PTSUNNY   70  61  73 E9        29.99F
RENO, NV       FAIR      86  42  21 SW8       30.08R
SALT LAKE CITY FAIR      95  32  11 N10       30.06F HX  90
SAN DIEGO, CA  FAIR      75  63  66 NW8       30.00S
SAN FRANCISCO, FAIR      71  59  65 SW15G23   30.06F
SAN JOSE, CA   FAIR      73  56  54 NW16      30.04R
SEATTLE, WA    PTSUNNY   69  56  62 W5        30.04F
TIJUANA, MEX   CLEAR     73  61  64 W15       30.02R

$$

STATION/POSITION TIME  TEMP    WIND        PRES    VSBY  WAVE
                       AIR SEA DIR/SP/G                  HT/PER
                 (UTC) (F)     (DEG/KT/KT) (MB)    (MI)  (FT/S)
POINT ARGUELLO B NOT AVBL
WEST SANTA BARBA 0200   67 65  310/ 17/ 21 1016.7S         4/10
POINT CONCEPTION NOT AVBL
EAST SANTA BARBA 0000   69 68  270/ 21/ 25 1015.9F
SANTA MONICA BAY 0200   70 70  280/ 19/ 23 1015.0F         4/ 5



USA.gov is the U.S. government's official web portal to all federal, state and local government web resources and services.